Weather in Munster

Germany     52°58′57″N   10°05′13″E
temp.,
°C
wind,
m/s
gust,
m/s
humid.,
%
clouds,
%
prec.,
mm/h
press.,
hPa
HPBL,
m
15 april, thu
thu1523:00+1n22856 0.0 102948
02:000ne22875 0.0 103041
05:00−1ne23845 0.0 103053
08:00+2n2471100 0.0 1031163
11:00+7nne3444100 0.0 10311288
14:00+9nne4537100 0.0 10302095
17:00+9ne4642100 0.0 10291775
20:00+5ne385673 0.0 1029346
16 april, fri
fri1623:00+3n387682 0.0 1030196
02:00+2n3979100 0.0 1029248
05:00+1n278498 0.0 1028175
08:00+3n3580100 0.0 1028196
11:00+8nne354686 0.0 10281135
14:00+11nne563576 0.0 10271565
17:00+9nne5744100 0.0 10261297
20:00+6nne385776 0.0 1027664
17 april, sat
sat1723:00+4n277474 0.0 1027189
02:00+2nnw266992 0.0 1026158
05:00+3nnw2769100 0.0 1025263
08:00+4n2779100 0.1 1025508
11:00+5n2580100 0.0 1025413
14:00+7nne3480100 0.0 1024634
17:00+9ne3472100 0.0 1024852
20:00+8nne2580100 0.0 1024259
18 april, sun
sun1823:00+6nne2589100 0.0 1024265
02:00+5n2694100 0.1 1024253
05:00+6n2795100 0.1 1023357
08:00+6n2694100 0.1 1023379
11:00+8nne2486100 0.0 1023524
14:00+12nne346893 0.1 10221082
17:00+12nne456487 0.4 10211213
20:00+9ene3888100 0.8 1022486
19 april, mon
mon1923:00+8nw2695100 1.6 1022534
02:00+8ne2498100 1.7 1021398
05:00+7ene2498100 0.0 1022212
08:00+7ene369398 0.1 1022237
11:00+11ene367231 0.0 1022676
14:00+14ene454997 0.1 10201915
17:00+14ne445977 0.2 10191126
20:00+10ne388698 0.8 1019274